Soldotna, AK

1:08 AM AKDT on April 24, 2018 (GMT -0800)
Soldotna

Weather History for PASX - October, 2014

Change the Weather History Date:

Thursday, October 9, 2014

  Actual Average Record
Temperature  
Mean Temperature 32 °F -  
Max Temperature 35 °F 44 °F 62 °F (2006)
Min Temperature 30 °F 30 °F 15 °F (2007)
Degree Days  
Heating Degree Days 32    
Moisture  
Dew Point 21 °F    
Average Humidity 65    
Maximum Humidity 87    
Minimum Humidity 48    
Precipitation  
Precipitation 0.00 in - - ()
Sea Level Pressure  
Sea Level Pressure 29.35 in    
Wind  
Wind Speed 8 mph (NE)    
Max Wind Speed 17 mph    
Max Gust Speed 26 mph    
Visibility 9 miles    
Events      
Averages and records for this station are not official NWS values.
T = Trace of Precipitation, MM = Missing Value Source: NWS Daily Summary

Daily Weather History Graph

Daily Weather History Graph

Search for Another Location

Airport or City:

Astronomy

Oct. 09, 2014 Rise Set
Actual Time 8:30 AM AKDT 7:11 PM AKDT
Civil Twilight 7:47 AM AKDT 7:53 PM AKDT
Nautical Twilight 6:58 AM AKDT 8:42 PM AKDT
Astronomical Twilight 6:08 AM AKDT 9:32 PM AKDT
Moon 7:45 PM AKDT (10/9) 10:21 AM AKDT (10/9)
Length of Visible Light 12h 05m
Length of Day
10h 40m
Full, 97% of the Moon is Illuminated
Oct 9
Full
Oct 15
Last Quarter
Oct 23
New
Oct 30
First Quarter
Nov 6
Full

Hourly Weather History & Observations

Time (AKDT) Temp. Windchill Dew Point Humidity Pressure Visibility Wind Dir Wind Speed Gust Speed Precip Events Conditions
12:16 AM 32.0 °F 28.7 °F 19.4 °F 60% 29.75 in 10.0 mi NE 3.5 mph - N/A   Overcast
12:36 AM 33.8 °F 29.6 °F 19.4 °F 56% 29.74 in 10.0 mi NE 4.6 mph - N/A   Overcast
12:56 AM 33.8 °F 28.6 °F 19.4 °F 56% 29.74 in 10.0 mi NE 5.8 mph - N/A   Overcast
1:16 AM 32.0 °F 27.5 °F 17.6 °F 55% 29.73 in 10.0 mi ENE 4.6 mph - N/A   Overcast
1:36 AM 32.0 °F 26.4 °F 17.6 °F 55% 29.71 in 10.0 mi NE 5.8 mph - N/A   Mostly Cloudy
1:56 AM 32.0 °F 26.4 °F 19.4 °F 60% 29.71 in 10.0 mi East 5.8 mph - N/A   Mostly Cloudy
2:16 AM 32.0 °F 27.5 °F 19.4 °F 60% 29.70 in 10.0 mi ENE 4.6 mph - N/A   Mostly Cloudy
2:36 AM 32.0 °F 25.6 °F 19.4 °F 60% 29.70 in 10.0 mi NE 6.9 mph - N/A   Partly Cloudy
2:56 AM 30.2 °F 23.4 °F 19.4 °F 64% 29.68 in 10.0 mi NE 6.9 mph - N/A   Clear
3:16 AM 30.2 °F 22.6 °F 19.4 °F 64% 29.66 in 10.0 mi NNE 8.1 mph - N/A   Clear
3:36 AM 30.2 °F 21.9 °F 19.4 °F 64% 29.65 in 10.0 mi NE 9.2 mph - N/A   Clear
3:56 AM 30.2 °F 22.6 °F 19.4 °F 64% 29.65 in 10.0 mi NE 8.1 mph - N/A   Clear
4:16 AM 30.2 °F 24.3 °F 17.6 °F 60% 29.63 in 10.0 mi NE 5.8 mph - N/A   Clear
4:36 AM 30.2 °F 21.3 °F 19.4 °F 64% 29.62 in 10.0 mi NE 10.4 mph - N/A   Clear
4:56 AM 30.2 °F 22.6 °F 17.6 °F 60% 29.61 in 10.0 mi NE 8.1 mph - N/A   Clear
5:16 AM 30.2 °F 21.3 °F 19.4 °F 64% 29.59 in 10.0 mi NE 10.4 mph - N/A   Partly Cloudy
5:36 AM 30.2 °F 21.9 °F 19.4 °F 64% 29.58 in 10.0 mi NE 9.2 mph 17.3 mph N/A   Clear
5:56 AM 30.2 °F 21.9 °F 19.4 °F 64% 29.57 in 10.0 mi NNE 9.2 mph - N/A   Clear
6:16 AM 30.2 °F 20.8 °F 19.4 °F 64% 29.56 in 10.0 mi NE 11.5 mph 16.1 mph N/A   Scattered Clouds
6:36 AM 30.2 °F 21.3 °F 19.4 °F 64% 29.55 in 10.0 mi NNE 10.4 mph 17.3 mph N/A   Scattered Clouds
6:56 AM 30.2 °F 20.2 °F 19.4 °F 64% 29.54 in 10.0 mi NE 12.7 mph 16.1 mph N/A   Scattered Clouds
7:16 AM 30.2 °F 22.6 °F 17.6 °F 60% 29.53 in 10.0 mi NE 8.1 mph - N/A   Mostly Cloudy
7:36 AM 30.2 °F 20.2 °F 17.6 °F 60% 29.52 in 10.0 mi NE 12.7 mph 18.4 mph N/A   Overcast
7:56 AM 30.2 °F 21.9 °F 17.6 °F 60% 29.50 in 10.0 mi NE 9.2 mph 18.4 mph N/A   Mostly Cloudy
8:16 AM 30.2 °F 20.8 °F 17.6 °F 60% 29.49 in 10.0 mi NE 11.5 mph 16.1 mph N/A   Mostly Cloudy
8:36 AM 30.2 °F 21.3 °F 17.6 °F 60% 29.48 in 10.0 mi NE 10.4 mph 17.3 mph N/A   Overcast
8:56 AM 30.2 °F 21.3 °F 17.6 °F 60% 29.47 in 10.0 mi NE 10.4 mph 16.1 mph N/A   Overcast
9:16 AM 30.2 °F 19.8 °F 17.6 °F 60% 29.46 in 10.0 mi ENE 13.8 mph 19.6 mph N/A   Overcast
9:36 AM 30.2 °F 19.8 °F 17.6 °F 60% 29.46 in 10.0 mi NE 13.8 mph 21.9 mph N/A   Overcast
9:56 AM 30.2 °F 19.3 °F 17.6 °F 60% 29.46 in 10.0 mi NE 15.0 mph 19.6 mph N/A   Overcast
10:16 AM 32.0 °F 22.1 °F 17.6 °F 55% 29.45 in 10.0 mi ENE 13.8 mph 20.7 mph N/A   Overcast
10:36 AM 32.0 °F 24.2 °F 17.6 °F 55% 29.44 in 10.0 mi ENE 9.2 mph 18.4 mph N/A   Overcast
10:56 AM 32.0 °F 23.0 °F 17.6 °F 55% 29.42 in 10.0 mi NE 11.5 mph 18.4 mph N/A   Overcast
11:16 AM 32.0 °F 24.2 °F 17.6 °F 55% 29.41 in 10.0 mi NE 9.2 mph 17.3 mph N/A   Overcast
11:36 AM - - - N/A% 29.39 in 10.0 mi NE 11.5 mph 20.7 mph N/A   Overcast
11:56 AM - - - N/A% 29.38 in 10.0 mi NE 13.8 mph 19.6 mph N/A   Overcast
12:16 PM - - - N/A% 29.36 in 10.0 mi NE 13.8 mph - N/A   Overcast
12:36 PM - - - N/A% 29.35 in 10.0 mi NE 10.4 mph 17.3 mph N/A   Overcast
12:56 PM 33.8 °F 27.0 °F 17.6 °F 52% 29.34 in 10.0 mi NE 8.1 mph - N/A   Overcast
1:16 PM 33.8 °F 25.3 °F 17.6 °F 52% 29.32 in 10.0 mi NNE 11.5 mph 20.7 mph N/A   Overcast
1:36 PM 35.6 °F 28.0 °F 17.6 °F 48% 29.31 in 10.0 mi NE 10.4 mph 18.4 mph N/A   Overcast
1:56 PM - - - N/A% 29.29 in 10.0 mi NE 11.5 mph 18.4 mph N/A   Overcast
2:16 PM - - - N/A% 29.28 in 10.0 mi NE 12.7 mph 23.0 mph N/A   Overcast
2:36 PM 35.6 °F 27.1 °F 17.6 °F 48% 29.27 in 10.0 mi ENE 12.7 mph 17.3 mph N/A   Overcast
2:56 PM 35.6 °F 29.9 °F 17.6 °F 48% 29.25 in 10.0 mi NE 6.9 mph 17.3 mph N/A   Overcast
3:16 PM 35.6 °F 28.6 °F 19.4 °F 52% 29.23 in 10.0 mi NE 9.2 mph - N/A   Overcast
3:36 PM 35.6 °F 27.1 °F 17.6 °F 48% 29.22 in 10.0 mi NE 12.7 mph 20.7 mph N/A   Overcast
3:56 PM 35.6 °F 27.5 °F 19.4 °F 52% 29.20 in 10.0 mi NE 11.5 mph - N/A   Overcast
4:16 PM 35.6 °F 26.2 °F 19.4 °F 52% 29.18 in 10.0 mi NE 15.0 mph 21.9 mph N/A   Overcast
4:36 PM - - - N/A% 29.16 in 10.0 mi NE 11.5 mph 21.9 mph N/A   Overcast
4:56 PM - - - N/A% 29.15 in 6.0 mi NE 17.3 mph 26.5 mph N/A   Overcast
5:16 PM 33.8 °F 23.9 °F 23.0 °F 65% 29.14 in 2.0 mi NE 15.0 mph 20.7 mph N/A   Overcast
5:36 PM - - - N/A% 29.13 in 0.8 mi NE 12.7 mph 19.6 mph N/A   Overcast
5:56 PM - - - N/A% 29.11 in 0.8 mi NE 13.8 mph 17.3 mph N/A   Overcast
6:16 PM 32.0 °F 23.0 °F 28.4 °F 87% 29.10 in 0.8 mi NNE 11.5 mph 19.6 mph N/A   Overcast
6:36 PM 32.0 °F 24.2 °F 28.4 °F 87% 29.08 in 1.2 mi NE 9.2 mph 17.3 mph N/A   Overcast
6:56 PM 32.0 °F 24.2 °F 28.4 °F 87% 29.07 in 1.8 mi NNE 9.2 mph 17.3 mph N/A   Overcast
7:16 PM 32.0 °F 24.2 °F 28.4 °F 87% 29.05 in 2.0 mi NNE 9.2 mph 17.3 mph N/A   Overcast
7:36 PM 33.8 °F 27.0 °F 28.4 °F 81% 29.05 in 5.0 mi NNE 8.1 mph 17.3 mph N/A   Overcast
7:56 PM 33.8 °F 27.0 °F 28.4 °F 81% 29.03 in 5.0 mi NE 8.1 mph - N/A   Overcast
8:16 PM 33.8 °F 27.0 °F 28.4 °F 81% 29.03 in 10.0 mi NE 8.1 mph 16.1 mph N/A   Overcast
8:36 PM 33.8 °F 27.0 °F 30.2 °F 87% 29.02 in 10.0 mi NE 8.1 mph - N/A   Overcast
8:56 PM 33.8 °F 26.4 °F 30.2 °F 87% 29.00 in 10.0 mi NE 9.2 mph - N/A   Overcast
9:16 PM 33.8 °F 29.6 °F 28.4 °F 81% 28.99 in 10.0 mi ENE 4.6 mph - N/A   Overcast
9:36 PM 35.6 °F 31.7 °F 28.4 °F 75% 28.99 in 10.0 mi NE 4.6 mph - N/A   Overcast
9:56 PM 35.6 °F 29.9 °F 28.4 °F 75% 28.98 in 10.0 mi ENE 6.9 mph - N/A   Overcast
10:16 PM 35.6 °F 30.7 °F 28.4 °F 75% 28.98 in 10.0 mi ENE 5.8 mph - N/A   Overcast
10:36 PM 35.6 °F 29.9 °F 28.4 °F 75% 28.98 in 9.0 mi ENE 6.9 mph - N/A   Overcast
10:56 PM - - - N/A% 28.97 in 10.0 mi NE 10.4 mph - N/A   Overcast
11:16 PM 33.8 °F 27.7 °F 30.2 °F 87% 28.98 in 10.0 mi NE 6.9 mph - N/A   Overcast
11:36 PM 33.8 °F 26.4 °F 30.2 °F 87% 28.97 in 10.0 mi NE 9.2 mph 17.3 mph N/A   Overcast
11:56 PM 33.8 °F 26.4 °F 30.2 °F 87% 28.97 in 10.0 mi NE 9.2 mph - N/A   Overcast